London, United Kingdom

6:08 AM GMT on February 27, 2017 (GMT +0000)
London

Weather History for 03772 - October, 2013

Change the Weather History Date:

Sunday, October 13, 2013

  Actual Average Record
Temperature  
Mean Temperature 50 °F -  
Max Temperature 53 °F 55 °F - ()
Min Temperature 46 °F 43 °F - ()
Degree Days  
Heating Degree Days 16    
Moisture  
Dew Point 49 °F    
Average Humidity 94    
Maximum Humidity 100    
Minimum Humidity 84    
Precipitation  
Precipitation 0.43 in - - ()
Sea Level Pressure  
Sea Level Pressure 29.85 in    
Wind  
Wind Speed 9 mph ()    
Max Wind Speed 15 mph    
Max Gust Speed -    
Visibility 6.3 miles    
Events Rain    
T = Trace of Precipitation, MM = Missing Value Source: Averaged Metar Reports

Daily Weather History Graph

Daily Weather History Graph

Search for Another Location

Airport or City:

Trip Planner

Search our weather history database for the weather conditions in past years. The results will help you decide how hot, cold, wet, or windy it might be!

Date:

Astronomy

Oct. 13, 2013 Rise Set
Actual Time 7:22 AM BST 6:12 PM BST
Civil Twilight 6:48 AM BST 6:46 PM BST
Nautical Twilight 6:10 AM BST 7:24 PM BST
Astronomical Twilight 5:31 AM BST 8:03 PM BST
Moon 3:28 PM BST (10/13) 12:37 AM BST (10/13)
Length of Visible Light 11h 57m
Length of Day
10h 50m
Waxing Gibbous, 67% of the Moon is Illuminated
Oct 13
Waxing Gibbous
Oct 19
Full
Oct 27
Last Quarter
Nov 3
New
Nov 10
First Quarter

Hourly Weather History & Observations

Time (BST) Temp. Windchill Dew Point Humidity Pressure Visibility Wind Dir Wind Speed Gust Speed Precip Events Conditions
12:20 AM 50.0 °F - 48.2 °F 94% 30.01 in - WSW 9.2 mph - N/A   Clear
12:50 AM 50 °F - 47 °F 84% 30.01 in 11 mi West 8.1 mph - -   Mostly Cloudy
12:50 AM 50.0 °F - 48.2 °F 94% 30.01 in - West 9.2 mph - N/A   Clear
1:20 AM 50.0 °F - 48.2 °F 94% 30.01 in - West 8.1 mph - N/A   Clear
1:50 AM 50.0 °F - 48.2 °F 94% 30.01 in 6.2 mi West 9.2 mph - N/A   Unknown
2:20 AM 50.0 °F - 48.2 °F 94% 29.98 in 6.2 mi West 12.7 mph - N/A   Unknown
2:50 AM 50.0 °F - 46.4 °F 87% 29.95 in 6.2 mi West 10.4 mph - N/A   Unknown
3:20 AM 50.0 °F - 48.2 °F 94% 29.95 in 5.6 mi West 8.1 mph - N/A   Partly Cloudy
3:50 AM 50 °F - 47 °F 85% 29.95 in 9 mi WSW 10.4 mph - -   Mostly Cloudy
3:50 AM 50.0 °F - 48.2 °F 94% 29.95 in 6.2 mi WSW 9.2 mph - N/A   Mostly Cloudy
4:20 AM 50.0 °F - 48.2 °F 94% 29.92 in 5.6 mi West 10.4 mph - N/A   Overcast
4:50 AM 50.0 °F - 48.2 °F 94% 29.92 in 6.2 mi West 10.4 mph - N/A   Mostly Cloudy
5:20 AM 50.0 °F - 48.2 °F 94% 29.92 in 6.2 mi West 10.4 mph - N/A   Mostly Cloudy
5:50 AM 50.0 °F - 50.0 °F 100% 29.89 in 3.7 mi WSW 9.2 mph - N/A Rain Light Rain
6:20 AM 50.0 °F - 50.0 °F 100% 29.89 in 3.1 mi West 9.2 mph - N/A Rain Light Rain
6:50 AM 51 °F - 49 °F 92% 29.87 in 4 mi West 10.4 mph - - Rain Light Rain Showers
6:50 AM 50.0 °F - 50.0 °F 100% 29.86 in 3.1 mi West 10.4 mph - N/A Rain Light Rain
7:20 AM 51.8 °F - 51.8 °F 100% 29.86 in - West 9.2 mph - N/A Rain Light Rain
7:50 AM 51.8 °F - 51.8 °F 100% 29.86 in - WNW 9.2 mph - N/A Rain Light Rain
8:20 AM 53.6 °F - 51.8 °F 94% 29.86 in 6.2 mi WNW 8.1 mph - N/A Rain Light Rain
8:50 AM 53.6 °F - 51.8 °F 94% 29.83 in 6.2 mi NW 8.1 mph - N/A Rain Light Rain
9:20 AM 53.6 °F - 51.8 °F 94% 29.83 in 6.2 mi NW 8.1 mph - N/A Rain Light Rain
9:50 AM 53 °F - 51 °F 88% 29.84 in 4 mi NW 10.4 mph - - Rain Rain
9:50 AM 51.8 °F - 51.8 °F 100% 29.83 in 5.6 mi NW 9.2 mph - N/A Rain Light Rain
10:20 AM 51.8 °F - 51.8 °F 100% 29.83 in 5.6 mi NW 9.2 mph - N/A Rain Light Rain
10:50 AM 51.8 °F - 50.0 °F 94% 29.83 in 6.2 mi WNW 10.4 mph - N/A Rain Light Rain
11:20 AM 51.8 °F - 50.0 °F 94% 29.83 in 6.2 mi WNW 10.4 mph - N/A Rain Light Rain
11:50 AM 51.8 °F - 50.0 °F 94% 29.80 in 6.2 mi WNW 10.4 mph - N/A Rain Light Rain
12:20 PM 51.8 °F - 50.0 °F 94% 29.80 in 5.6 mi WNW 13.8 mph - N/A Rain Light Rain
12:50 PM 52 °F - 49 °F 88% 29.80 in 4 mi WNW 13.8 mph - - Rain Light Drizzle
12:50 PM 51.8 °F - 50.0 °F 94% 29.80 in 5.0 mi WNW 12.7 mph - N/A Rain Light Rain
1:20 PM 51.8 °F - 50.0 °F 94% 29.80 in 3.7 mi WNW 10.4 mph - N/A Rain Light Rain
1:50 PM 51.8 °F - 50.0 °F 94% 29.80 in 5.0 mi WNW 9.2 mph - N/A Rain Light Rain
2:20 PM 51.8 °F - 50.0 °F 94% 29.80 in 6.2 mi NW 8.1 mph - N/A   Mostly Cloudy
2:50 PM 51.8 °F - 50.0 °F 94% 29.80 in 6.2 mi NW 8.1 mph - N/A Rain Light Rain
3:20 PM 51.8 °F - 50.0 °F 94% 29.80 in 6.2 mi WNW 6.9 mph - N/A Rain Light Rain
3:50 PM 52 °F - 49 °F 87% 29.80 in 19 mi WNW 8.1 mph - - Rain Rain
3:50 PM 51.8 °F - 50.0 °F 94% 29.80 in 6.2 mi WNW 5.8 mph - N/A   Scattered Clouds
4:20 PM 51.8 °F - 50.0 °F 94% 29.80 in 6.2 mi WNW 8.1 mph - N/A   Mostly Cloudy
4:50 PM 51.8 °F - 50.0 °F 94% 29.80 in 6.2 mi WNW 9.2 mph - N/A   Mostly Cloudy
5:20 PM 51.8 °F - 50.0 °F 94% 29.80 in 6.2 mi West 8.1 mph - N/A   Mostly Cloudy
5:50 PM 51.8 °F - 50.0 °F 94% 29.80 in 6.2 mi WNW 6.9 mph - N/A Rain Light Rain Showers
6:20 PM 50.0 °F - 48.2 °F 94% 29.80 in 6.2 mi WNW 6.9 mph - N/A Rain Light Rain
6:50 PM 50 °F - 47 °F 86% 29.81 in 14 mi WNW 5.8 mph - - Rain Rain
6:50 PM 50.0 °F - 48.2 °F 94% 29.80 in 6.2 mi WNW 5.8 mph - N/A   Mostly Cloudy
7:20 PM 50.0 °F - 48.2 °F 94% 29.80 in 6.2 mi WNW 6.9 mph - N/A   Scattered Clouds
7:50 PM 50.0 °F - 48.2 °F 94% 29.80 in 6.2 mi WNW 6.9 mph - N/A   Partly Cloudy
8:20 PM 50.0 °F - 48.2 °F 94% 29.80 in 6.2 mi WNW 6.9 mph - N/A   Partly Cloudy
8:50 PM 48.2 °F - 46.4 °F 93% 29.80 in 6.2 mi West 10.4 mph - N/A   Partly Cloudy
9:20 PM 46.4 °F 40.7 °F 46.4 °F 100% 29.80 in 6.2 mi West 12.7 mph - N/A   Partly Cloudy
9:50 PM 48 °F - 45 °F 87% 29.81 in 9 mi West 11.5 mph - -   Scattered Clouds
9:50 PM 48.2 °F - 46.4 °F 93% 29.80 in 6.2 mi West 15.0 mph - N/A   Scattered Clouds
10:20 PM 48.2 °F - 46.4 °F 93% 29.80 in - West 9.2 mph - N/A   Clear
10:50 PM 46.4 °F 41.1 °F 46.4 °F 100% 29.80 in 5.6 mi West 11.5 mph - N/A   Unknown
11:20 PM 48.2 °F - 46.4 °F 93% 29.80 in 5.6 mi WSW 12.7 mph - N/A   Scattered Clouds
11:50 PM 48.2 °F - 48.2 °F 100% 29.80 in 6.2 mi WSW 12.7 mph - N/A   Scattered Clouds